Orbital Elements at Epoch 2459000.5 (2020-May-31.0) TDB
Reference: JPL 11 (heliocentric ecliptic J2000)
Element | Value | Uncertainty (1-sigma) | Units |
e | .2895127311092801 | 5.7569e-08 | |
a | 3.113575743076504 | 2.8171e-08 | au |
q | 2.212155926182819 | 1.7555e-07 | au |
i | 11.07276708416065 | 7.6151e-06 | deg |
node | 254.1349835882595 | 3.8553e-05 | deg |
peri | 182.1820554088661 | 4.1589e-05 | deg |
M | 228.3031875234909 | 1.3877e-05 | deg |
tp | 2459734.608651811044 (2022-Jun-04.10865181) | 8.1374e-05 | TDB |
period | 2006.723698791994 5.49 | 2.7235e-05 7.457e-08 | d yr |
n | .1793968946580501 | 2.4347e-09 | deg/d |
Q | 4.014995559970189 | 3.6327e-08 | au |
|
| | Orbit Determination Parameters
Additional Information
|